Location: Staunton
(38.1490°N, 79.0720°W)
Time: 12:35:06
(UTC-04:00)

ISS - Pass Details

Date: 16 September 2018
Orbit: 403 x 408 km, 51.6° (Epoch: 26 September)

Event Time Altitude Azimuth Distance (km) Brightness Sun altitude
Exits shadow 05:54:28 12° 310° (NW) 1,350 -1.5 -13.3°
Maximum altitude 05:57:28 87° 36° (NE) 407 -3.9 -12.7°
Drops below altitude 10° 06:00:43 10° 130° (SE) 1,449 -0.5 -12.1°
Sets 06:02:47 0° 130° (SE) 2,303 0.6 -11.7°
